Location: Bo?a Wola
(50.4192°N, 19.7966°E)
Time: 14:29:29
(UTC+00:00)

CZ-2D R/B - Visible Passes

Search period start: 18 September 2024 00:00
Search period end: 28 September 2024 00:00
Orbit: 791 x 842 km, 98.8° (Epoch: 17 September)

Date Brightness Start Highest point End Pass type
(mag) Time Alt. Az. Time Alt. Az. Time Alt. Az.
18 Sep 2.4 00:45:37 10° NNE 00:50:41 65° ENE 00:50:41 65° ENE visible
18 Sep 3.4 02:26:19 10° N 02:30:39 25° WNW 02:31:57 22° W visible
19 Sep 3.1 00:23:55 10° NNE 00:28:30 44° ENE 00:28:30 44° ENE visible
19 Sep 2.9 02:04:10 10° N 02:09:03 34° WNW 02:09:47 33° WNW visible
20 Sep 3.7 00:02:21 10° NNE 00:06:19 30° ENE 00:06:19 30° ENE visible
20 Sep 2.5 01:42:09 10° N 01:47:24 48° WNW 01:47:35 47° WNW visible
20 Sep 4.2 03:24:57 10° NNW 03:26:09 11° NW 03:27:22 10° WNW visible
20 Sep 4.2 23:41:01 10° NE 23:44:08 20° ENE 23:44:08 20° ENE visible
21 Sep 2.2 01:20:13 10° N 01:25:24 67° NW 01:25:24 67° NW visible
21 Sep 4.0 03:01:47 10° NNW 03:04:44 15° NW 03:06:40 13° WNW visible
21 Sep 4.6 23:20:06 10° NE 23:21:57 14° ENE 23:21:57 14° ENE visible
22 Sep 2.4 00:58:22 10° NNE 01:03:12 69° NNE 01:03:12 69° NNE visible
22 Sep 3.6 02:39:20 10° N 02:43:15 20° NW 02:44:28 19° WNW visible
23 Sep 2.9 00:36:36 10° NNE 00:41:01 49° ENE 00:41:01 49° ENE visible
23 Sep 3.2 02:17:06 10° N 02:21:42 28° WNW 02:22:17 27° WNW visible
24 Sep 3.5 00:14:57 10° NNE 00:18:49 34° ENE 00:18:49 34° ENE visible
24 Sep 2.8 01:55:01 10° N 02:00:05 39° WNW 02:00:06 39° WNW visible
24 Sep 4.1 23:53:29 10° NE 23:56:38 24° ENE 23:56:38 24° ENE visible
25 Sep 2.5 01:33:02 10° N 01:37:54 54° NW 01:37:54 54° NW visible
25 Sep 4.1 03:15:08 10° NNW 03:17:16 12° NW 03:19:10 10° WNW visible
25 Sep 4.5 23:32:16 10° NE 23:34:25 16° ENE 23:34:25 16° ENE visible
26 Sep 2.5 01:11:08 10° NNE 01:15:42 62° N 01:15:42 62° N visible
26 Sep 3.8 02:52:25 10° NNW 02:55:49 17° NW 02:56:57 16° WNW visible
26 Sep 4.9 23:11:46 10° ENE 23:12:13 11° ENE 23:12:13 11° ENE visible
27 Sep 2.9 00:49:19 10° NNE 00:53:30 51° NE 00:53:30 51° NE visible
27 Sep 3.4 02:30:05 10° N 02:34:18 23° WNW 02:34:46 23° WNW visible
